Time,TemperatureF,DewpointF,PressureIn,WindDirection,WindDirectionDegrees,WindSpeedMPH,WindSpeedGustMPH,Humidity,HourlyPrecipIn,Conditions,Clouds,dailyrainin,SolarRadiationWatts/m^2,SoftwareType,DateUTC
2013-03-13 00:01:00,36.0,32.0,-100.00,SW,220,2.0,8.0,84,0.00,,,0.27,0.000000,,2013-03-13 04:01:00,
2013-03-13 00:32:00,36.0,32.0,-100.00,SW,220,2.0,8.0,84,0.00,,,0.27,0.000000,,2013-03-13 04:32:00,
2013-03-13 00:43:00,36.0,32.0,-100.00,SW,220,2.0,8.0,84,0.00,,,0.27,0.000000,,2013-03-13 04:43:00,
2013-03-13 00:53:00,36.0,32.0,-100.00,SW,220,2.0,8.0,84,0.00,,,0.27,0.000000,,2013-03-13 04:53:00,
2013-03-13 01:01:00,35.0,31.0,-100.00,WSW,247,1.0,8.0,86,0.00,,,0.25,0.000000,,2013-03-13 05:01:00,
2013-03-13 01:33:00,35.0,31.0,-100.00,WSW,247,1.0,8.0,86,0.00,,,0.25,0.000000,,2013-03-13 05:33:00,
2013-03-13 01:42:00,35.0,31.0,-100.00,WSW,247,1.0,8.0,86,0.00,,,0.25,0.000000,,2013-03-13 05:42:00,
2013-03-13 01:52:00,35.0,31.0,-100.00,WSW,247,1.0,8.0,86,0.00,,,0.25,0.000000,,2013-03-13 05:52:00,
2013-03-13 02:01:00,35.0,31.0,-100.00,WSW,248,1.0,8.0,86,0.00,,,0.21,0.000000,,2013-03-13 06:01:00,
2013-03-13 02:33:00,35.0,31.0,-100.00,WSW,248,1.0,8.0,86,0.00,,,0.21,0.000000,,2013-03-13 06:33:00,
2013-03-13 02:42:00,35.0,31.0,-100.00,WSW,248,1.0,8.0,86,0.00,,,0.21,0.000000,,2013-03-13 06:42:00,
2013-03-13 02:53:00,35.0,31.0,-100.00,WSW,248,1.0,8.0,86,0.00,,,0.21,0.000000,,2013-03-13 06:53:00,
2013-03-13 03:01:00,35.0,31.0,-100.00,WSW,250,2.0,7.0,85,0.00,,,0.18,0.000000,,2013-03-13 07:01:00,
2013-03-13 03:33:00,35.0,31.0,-100.00,WSW,250,2.0,7.0,85,0.00,,,0.18,0.000000,,2013-03-13 07:33:00,
2013-03-13 03:43:00,35.0,31.0,-100.00,WSW,250,2.0,7.0,85,0.00,,,0.18,0.000000,,2013-03-13 07:43:00,
2013-03-13 03:53:00,35.0,31.0,-100.00,WSW,250,2.0,7.0,85,0.00,,,0.18,0.000000,,2013-03-13 07:53:00,
2013-03-13 04:01:00,35.0,31.0,-100.00,SW,236,1.0,6.0,85,0.00,,,0.17,0.000000,,2013-03-13 08:01:00,
2013-03-13 04:33:00,35.0,31.0,-100.00,SW,236,1.0,6.0,85,0.00,,,0.17,0.000000,,2013-03-13 08:33:00,
2013-03-13 04:43:00,35.0,31.0,-100.00,SW,236,1.0,6.0,85,0.00,,,0.17,0.000000,,2013-03-13 08:43:00,
2013-03-13 04:54:00,35.0,31.0,-100.00,SW,236,1.0,6.0,85,0.00,,,0.17,0.000000,,2013-03-13 08:54:00,
2013-03-13 05:01:00,34.0,30.0,-100.00,SW,226,1.0,6.0,86,0.00,,,0.17,0.000000,,2013-03-13 09:01:00,
2013-03-13 05:32:00,34.0,30.0,-100.00,SW,226,1.0,6.0,86,0.00,,,0.17,0.000000,,2013-03-13 09:32:00,
2013-03-13 05:42:00,34.0,30.0,-100.00,SW,226,1.0,6.0,86,0.00,,,0.17,0.000000,,2013-03-13 09:42:00,
2013-03-13 05:52:00,34.0,30.0,-100.00,SW,226,1.0,6.0,86,0.00,,,0.17,0.000000,,2013-03-13 09:52:00,
2013-03-13 06:01:00,34.0,31.0,-100.00,SW,222,1.0,6.0,88,0.00,,,0.17,0.000000,,2013-03-13 10:01:00,
2013-03-13 06:32:00,34.0,31.0,-100.00,SW,222,1.0,6.0,88,0.00,,,0.17,0.000000,,2013-03-13 10:32:00,
2013-03-13 06:42:00,34.0,31.0,-100.00,SW,222,1.0,6.0,88,0.00,,,0.17,0.000000,,2013-03-13 10:42:00,
2013-03-13 06:52:00,34.0,31.0,-100.00,SW,222,1.0,6.0,88,0.00,,,0.17,0.000000,,2013-03-13 10:52:00,
2013-03-13 07:01:00,33.0,30.0,-100.00,WSW,250,1.0,6.0,89,0.00,,,0.17,0.000000,,2013-03-13 11:01:00,
2013-03-13 07:32:00,33.0,30.0,-100.00,WSW,250,1.0,6.0,89,0.00,,,0.17,0.000000,,2013-03-13 11:32:00,
2013-03-13 07:42:00,33.0,30.0,-100.00,WSW,250,1.0,6.0,89,0.00,,,0.17,0.000000,,2013-03-13 11:42:00,
2013-03-13 07:53:00,33.0,30.0,-100.00,WSW,250,1.0,6.0,89,0.00,,,0.17,0.000000,,2013-03-13 11:53:00,
2013-03-13 08:01:00,33.0,30.0,-100.00,WSW,242,0.0,5.0,88,0.00,,,0.13,7.000000,,2013-03-13 12:01:00,
2013-03-13 08:32:00,33.0,30.0,-100.00,WSW,242,0.0,5.0,88,0.00,,,0.13,7.000000,,2013-03-13 12:32:00,
2013-03-13 08:42:00,33.0,30.0,-100.00,WSW,242,0.0,5.0,88,0.00,,,0.13,7.000000,,2013-03-13 12:42:00,
2013-03-13 08:53:00,33.0,30.0,-100.00,WSW,242,0.0,5.0,88,0.00,,,0.13,7.000000,,2013-03-13 12:53:00,
2013-03-13 09:01:00,35.0,30.0,-100.00,WSW,240,1.0,5.0,83,0.00,,,0.11,56.000000,,2013-03-13 13:01:00,
2013-03-13 09:22:00,35.0,30.0,-100.00,WSW,240,1.0,5.0,83,0.00,,,0.11,56.000000,,2013-03-13 13:22:00,
2013-03-13 09:33:00,35.0,30.0,-100.00,WSW,240,1.0,5.0,83,0.00,,,0.11,56.000000,,2013-03-13 13:33:00,
2013-03-13 09:43:00,35.0,30.0,-100.00,WSW,240,1.0,5.0,83,0.00,,,0.11,56.000000,,2013-03-13 13:43:00,
2013-03-13 09:53:00,35.0,30.0,-100.00,WSW,240,1.0,5.0,83,0.00,,,0.11,56.000000,,2013-03-13 13:53:00,
2013-03-13 10:01:00,37.0,28.0,-100.00,SW,233,2.0,8.0,71,0.00,,,0.11,157.000000,,2013-03-13 14:01:00,
2013-03-13 10:22:00,37.0,28.0,-100.00,SW,233,2.0,8.0,71,0.00,,,0.11,157.000000,,2013-03-13 14:22:00,
2013-03-13 10:34:00,37.0,28.0,-100.00,SW,233,2.0,8.0,71,0.00,,,0.11,157.000000,,2013-03-13 14:34:00,
2013-03-13 10:42:00,37.0,28.0,-100.00,SW,233,2.0,8.0,71,0.00,,,0.11,157.000000,,2013-03-13 14:42:00,
2013-03-13 10:53:00,37.0,28.0,-100.00,SW,233,2.0,8.0,71,0.00,,,0.11,157.000000,,2013-03-13 14:53:00,
2013-03-13 11:01:00,39.0,28.0,-100.00,WSW,238,2.0,6.0,65,0.00,,,0.11,229.000000,,2013-03-13 15:01:00,
2013-03-13 11:22:00,39.0,28.0,-100.00,WSW,238,2.0,6.0,65,0.00,,,0.11,229.000000,,2013-03-13 15:22:00,
2013-03-13 11:33:00,39.0,28.0,-100.00,WSW,238,2.0,6.0,65,0.00,,,0.11,229.000000,,2013-03-13 15:33:00,
2013-03-13 11:43:00,39.0,28.0,-100.00,WSW,238,2.0,6.0,65,0.00,,,0.11,229.000000,,2013-03-13 15:43:00,
2013-03-13 11:53:00,39.0,28.0,-100.00,WSW,238,2.0,6.0,65,0.00,,,0.11,229.000000,,2013-03-13 15:53:00,
2013-03-13 12:01:00,42.0,27.0,-100.00,WSW,248,2.0,9.0,54,0.00,,,0.11,352.000000,,2013-03-13 16:01:00,
2013-03-13 12:33:00,42.0,27.0,-100.00,WSW,248,2.0,9.0,54,0.00,,,0.11,352.000000,,2013-03-13 16:33:00,
2013-03-13 12:42:00,42.0,27.0,-100.00,WSW,248,2.0,9.0,54,0.00,,,0.11,352.000000,,2013-03-13 16:42:00,
2013-03-13 12:52:00,42.0,27.0,-100.00,WSW,248,2.0,9.0,54,0.00,,,0.11,352.000000,,2013-03-13 16:52:00,
2013-03-13 13:01:00,40.0,26.0,-100.00,WSW,253,2.0,10.0,57,0.00,,,0.11,369.000000,,2013-03-13 17:01:00,
2013-03-13 13:33:00,40.0,26.0,-100.00,WSW,253,2.0,10.0,57,0.00,,,0.11,369.000000,,2013-03-13 17:33:00,
2013-03-13 13:42:00,40.0,26.0,-100.00,WSW,253,2.0,10.0,57,0.00,,,0.11,369.000000,,2013-03-13 17:42:00,
2013-03-13 13:53:00,40.0,26.0,-100.00,WSW,253,2.0,10.0,57,0.00,,,0.11,369.000000,,2013-03-13 17:53:00,
2013-03-13 14:01:00,39.0,29.0,-100.00,SW,236,3.0,9.0,67,0.00,,,0.11,395.000000,,2013-03-13 18:01:00,
2013-03-13 14:33:00,39.0,29.0,-100.00,SW,236,3.0,9.0,67,0.00,,,0.11,395.000000,,2013-03-13 18:33:00,
2013-03-13 14:43:00,39.0,29.0,-100.00,SW,236,3.0,9.0,67,0.00,,,0.11,395.000000,,2013-03-13 18:43:00,
2013-03-13 14:52:00,39.0,29.0,-100.00,SW,236,3.0,9.0,67,0.00,,,0.11,395.000000,,2013-03-13 18:52:00,
2013-03-13 15:01:00,40.0,26.0,-100.00,WSW,239,4.0,12.0,58,0.00,,,0.10,321.000000,,2013-03-13 19:01:00,
2013-03-13 15:32:00,40.0,26.0,-100.00,WSW,239,4.0,12.0,58,0.00,,,0.10,321.000000,,2013-03-13 19:32:00,
2013-03-13 15:43:00,40.0,26.0,-100.00,WSW,239,4.0,12.0,58,0.00,,,0.10,321.000000,,2013-03-13 19:43:00,
2013-03-13 15:53:00,40.0,26.0,-100.00,WSW,239,4.0,12.0,58,0.00,,,0.10,321.000000,,2013-03-13 19:53:00,
2013-03-13 16:01:00,41.0,27.0,-100.00,WSW,237,3.0,12.0,56,0.00,,,0.06,335.000000,,2013-03-13 20:01:00,
2013-03-13 16:33:00,41.0,27.0,-100.00,WSW,237,3.0,12.0,56,0.00,,,0.06,335.000000,,2013-03-13 20:33:00,
2013-03-13 16:42:00,41.0,27.0,-100.00,WSW,237,3.0,12.0,56,0.00,,,0.06,335.000000,,2013-03-13 20:42:00,
2013-03-13 16:52:00,41.0,27.0,-100.00,WSW,237,3.0,12.0,56,0.00,,,0.06,335.000000,,2013-03-13 20:52:00,
2013-03-13 17:01:00,42.0,22.0,-100.00,WSW,245,3.0,13.0,45,0.00,,,0.03,249.000000,,2013-03-13 21:01:00,
2013-03-13 17:22:00,42.0,22.0,-100.00,WSW,245,3.0,13.0,45,0.00,,,0.03,249.000000,,2013-03-13 21:22:00,
2013-03-13 17:34:00,42.0,22.0,-100.00,WSW,245,3.0,13.0,45,0.00,,,0.03,249.000000,,2013-03-13 21:34:00,
2013-03-13 17:42:00,42.0,22.0,-100.00,WSW,245,3.0,13.0,45,0.00,,,0.03,249.000000,,2013-03-13 21:42:00,
2013-03-13 17:52:00,42.0,22.0,-100.00,WSW,245,3.0,13.0,45,0.00,,,0.03,249.000000,,2013-03-13 21:52:00,
2013-03-13 18:01:00,38.0,23.0,-100.00,WSW,239,2.0,10.0,55,0.00,,,0.01,110.000000,,2013-03-13 22:01:00,
2013-03-13 18:32:00,38.0,23.0,-100.00,WSW,239,2.0,10.0,55,0.00,,,0.01,110.000000,,2013-03-13 22:32:00,
2013-03-13 18:42:00,38.0,23.0,-100.00,WSW,239,2.0,10.0,55,0.00,,,0.01,110.000000,,2013-03-13 22:42:00,
2013-03-13 18:52:00,38.0,23.0,-100.00,WSW,239,2.0,10.0,55,0.00,,,0.01,110.000000,,2013-03-13 22:52:00,
2013-03-13 19:01:00,36.0,24.0,-100.00,SW,235,2.0,9.0,62,0.00,,,0.00,26.000000,,2013-03-13 23:01:00,
2013-03-13 19:32:00,36.0,24.0,-100.00,SW,235,2.0,9.0,62,0.00,,,0.00,26.000000,,2013-03-13 23:32:00,
2013-03-13 19:43:00,36.0,24.0,-100.00,SW,235,2.0,9.0,62,0.00,,,0.00,26.000000,,2013-03-13 23:43:00,
2013-03-13 19:52:00,36.0,24.0,-100.00,SW,235,2.0,9.0,62,0.00,,,0.00,26.000000,,2013-03-13 23:52:00,
2013-03-13 20:01:00,34.0,25.0,-100.00,WSW,240,1.0,8.0,69,0.00,,,0.00,1.000000,,2013-03-14 00:01:00,
2013-03-13 20:33:00,34.0,25.0,-100.00,WSW,240,1.0,8.0,69,0.00,,,0.00,1.000000,,2013-03-14 00:33:00,
2013-03-13 20:42:00,34.0,25.0,-100.00,WSW,240,1.0,8.0,69,0.00,,,0.00,1.000000,,2013-03-14 00:42:00,
2013-03-13 20:52:00,34.0,25.0,-100.00,WSW,240,1.0,8.0,69,0.00,,,0.00,1.000000,,2013-03-14 00:52:00,
2013-03-13 21:01:00,32.0,25.0,-100.00,SW,230,2.0,8.0,75,0.00,,,0.00,0.000000,,2013-03-14 01:01:00,
2013-03-13 21:23:00,32.0,25.0,-100.00,SW,230,2.0,8.0,75,0.00,,,0.00,0.000000,,2013-03-14 01:23:00,
2013-03-13 21:33:00,32.0,25.0,-100.00,SW,230,2.0,8.0,75,0.00,,,0.00,0.000000,,2013-03-14 01:33:00,
2013-03-13 21:42:00,32.0,25.0,-100.00,SW,230,2.0,8.0,75,0.00,,,0.00,0.000000,,2013-03-14 01:42:00,
2013-03-13 21:53:00,32.0,25.0,-100.00,SW,230,2.0,8.0,75,0.00,,,0.00,0.000000,,2013-03-14 01:53:00,
2013-03-13 22:01:00,32.0,26.0,-100.00,WSW,241,3.0,12.0,78,0.00,,,0.00,0.000000,,2013-03-14 02:01:00,
2013-03-13 22:33:00,32.0,26.0,-100.00,WSW,241,3.0,12.0,78,0.00,,,0.00,0.000000,,2013-03-14 02:33:00,
2013-03-13 22:42:00,32.0,26.0,-100.00,WSW,241,3.0,12.0,78,0.00,,,0.00,0.000000,,2013-03-14 02:42:00,
2013-03-13 22:52:00,32.0,26.0,-100.00,WSW,241,3.0,12.0,78,0.00,,,0.00,0.000000,,2013-03-14 02:52:00,
2013-03-13 23:33:00,32.0,26.0,-100.00,WSW,240,3.0,12.0,79,0.00,,,0.00,0.000000,,2013-03-14 03:33:00,
2013-03-13 23:42:00,32.0,26.0,-100.00,WSW,240,3.0,12.0,79,0.00,,,0.00,0.000000,,2013-03-14 03:42:00,
2013-03-13 23:53:00,32.0,26.0,-100.00,WSW,240,3.0,12.0,79,0.00,,,0.00,0.000000,,2013-03-14 03:53:00,